Location: ???????
(54.6339°N, 39.4245°E)
Time: 04:35:11
(UTC+00:00)

Landsat 5 - Pass Details

Date: 19 May 2025
Orbit: 510 x 610 km, 98.1° (Epoch: 19 June)

Event Time Altitude Azimuth Distance (km) Brightness Sun altitude
Rises 20:15:42 0° 18° (NNE) 2,805 7.9 -14.2°
Reaches altitude 10° 20:17:52 10° 23° (NNE) 1,917 6.9 -14.3°
Maximum altitude 20:21:58 54° 101° (ESE) 726 3.7 -14.4°
Enters shadow 20:24:14 25° 170° (S) 1,229 4.5 -14.5°
